RH
45 42 40 41 48 50 52 58 64 77 92 99 98 99 98 97 97 98 99 98 98 98 100 100 100 100 99 96 86 71 65 59 61 64 67 73 73 85 80 64 60 71 94
40 38 42 46 50 52 55 63 82 95 98 99 98 98 98 98 97 98 98 99 99 100 98 100 99 99 100 98 93 79 70 62 61 59 66 68 74 78 90 88 84 73 100
30 36 42 46 51 61 83 99 98 97 96 97 97 96 98 96 96 96 96 98 97 97 98 99 100 100 100 99 91 83 75 66 67 63 68 77 94 99 100 94 95 96 100
32 36 37 45 58 96 99 99 98 98 100 100 100 98 99 98 98 99 97 97 97 97 97 98 98 99 99 98 96 87 81 69 70 66 64 76 80 94 90 83 87 100 100
36 34 37 48 78 99 98 98 99 100 100 100 98 98 98 99 99 99 97 96 97 98 98 98 99 99 99 92 83 92 82 71 71 65 66 72 74 90 80 84 89 100 100
40 40 43 54 97 98 98 96 100 100 100 99 98 99 99 99 99 99 98 98 97 99 98 98 99 98 95 89 85 88 78 73 72 65 63 63 69 74 87 84 99 100 98
42 42 45 61 99 98 96 100 100 100 99 99 99 100 100 99 99 99 98 98 98 99 98 95 95 98 99 94 91 87 78 77 73 70 70 73 70 75 83 99 100 100 100
42 43 52 92 99 98 98 98 100 98 100 99 100 99 99 99 98 98 99 98 99 98 93 96 99 97 96 90 83 84 81 75 59 73 86 98 78 76 87 98 100 100 100
40 52 59 99 98 100 98 99 100 100 100 100 100 100 100 100 98 99 98 99 100 100 99 100 100 98 96 90 85 84 80 76 54 72 97 94 84 84 99 99 100 97 99
48 60 79 98 99 100 100 100 100 100 100 100 100 100 100 99 98 99 97 97 98 99 97 99 90 94 88 83 83 81 76 77 70 72 97 84 83 89 99 100 98 98 98
49 57 79 98 100 99 100 100 100 100 100 100 100 100 100 99 97 96 92 97 98 98 98 99 90 81 80 84 86 77 73 76 76 96 100 100 99 100 100 100 95 92 88
45 52 72 97 100 100 100 100 100 100 100 100 100 99 99 95 96 96 88 88 85 89 92 94 88 80 81 76 86 76 56 81 88 100 98 96 100 100 100 98 99 88 88
32 45 55 96 98 100 100 100 100 100 100 100 99 95 98 93 84 80 83 88 89 96 94 92 88 93 87 81 66 64 67 84 100 96 98 100 98 99 100 100 98 90 91
32 40 48 86 97 100 100 100 100 100 100 100 100 97 99 100 98 94 95 94 93 92 91 93 96 94 91 82 75 76 89 100 94 97 100 100 100 100 100 99 98 98 95
32 32 47 58 96 99 100 100 100 100 100 100 100 100 98 99 99 99 98 98 98 98 99 97 93 90 98 93 83 99 100 100 100 100 99 100 100 100 100 100 97 97 97
34 32 38 48 72 97 100 99 100 100 99 100 100 100 100 100 89 90 87 91 94 99 99 100 100 100 100 100 100 100 100 99 100 100 100 100 100 100 100 100 100 99 99
33 23 34 41 50 67 97 100 100 100 100 100 100 100 100 100 100 100 100 100 100 99 100 100 100 100 100 100 100 100 100 100 100 100 100 100 99 100 99 100 100 99 100
23 18 22 32 44 52 59 88 99 100 100 100 100 100 100 100 100 100 100 97 97 98 99 99 100 99 100 100 100 99 100 100 100 100 100 100 100 100 100 100 100 99 100
26 20 16 14 15 36 48 56 76 96 98 99 100 100 100 100 98 98 91 95 99 99 100 100 99 99 99 99 99 99 100 100 100 99 99 99 100 99 100 100 100 100 99
27 20 16 13 13 20 34 42 53 65 91 99 100 100 100 97 97 99 100 100 99 99 100 98 99 100 98 99 99 99 100 99 100 99 100 100 100 100 99 100 100 98 100
28 25 19 16 14 11 15 26 36 45 57 82 96 99 100 97 100 100 100 100 100 100 100 100 100 99 100 99 100 99 99 100 100 99 99 100 99 99 99 99 99 99 98
28 27 24 23 18 14 12 10 14 23 35 44 66 95 100 98 100 100 100 100 100 100 100 100 99 100 99 100 100 100 99 98 99 99 99 99 98 98 99 99 99 99 96
29 30 27 26 22 18 16 13 10 9 10 14 20 30 75 96 99 100 100 100 100 100 100 100 99 99 100 100 99 100 98 98 99 97 95 98 97 95 96 94 95 96 93
26 31 30 30 26 24 19 18 15 11 10 9 8 9 10 12 26 59 87 98 100 100 100 97 98 96 96 97 97 96 96 94 93 92 88 85 86 89 86 81 78 80 79
30 25 33 34 31 31 27 21 18 15 13 11 10 9 8 8 9 9 8 8 18 38 64 86 93 92 90 89 90 88 87 88 88 84 78 75 73 72 66 53 41 27 13
35 33 26 30 36 33 31 29 22 19 16 15 13 12 11 10 9 9 9 9 9 8 7 6 5 6 10 12 14 20 26 28 28 21 12 8 7 6 7 7 8 9 9
Wind_Speed
25 26 26 26 26 25 24 23 22 21 18 21 21 19 13 16 17 18 21 19 21 24 28 31 32 33 32 26 25 22 18 14 7 6 7 8 8 7 7 7 6 7 14
26 26 26 26 26 25 24 23 21 18 21 17 17 14 14 14 14 16 18 22 24 23 21 30 30 31 33 29 26 25 20 17 12 12 10 9 8 7 7 5 4 8 12
26 26 27 27 27 27 26 24 21 19 18 15 15 15 13 13 12 13 16 21 22 23 24 28 28 33 30 26 27 24 23 19 14 14 12 8 6 6 6 5 3 6 13
26 26 27 28 28 26 24 21 21 19 16 15 15 16 14 10 9 10 14 18 22 24 24 26 30 29 29 32 27 26 25 21 15 16 15 12 11 8 7 7 6 7 16
26 27 28 28 26 27 27 25 22 18 18 18 18 15 10 7 6 10 17 21 25 26 26 26 28 30 26 29 26 23 25 23 17 17 15 14 13 11 10 8 7 12 25
27 29 28 27 29 29 30 26 20 20 20 20 20 19 15 4 4 11 21 25 26 27 26 25 23 26 26 30 25 24 24 23 18 17 16 17 15 13 9 9 11 18 11
28 28 29 29 29 31 28 22 21 21 23 23 24 20 15 13 10 15 22 27 27 28 28 27 27 27 28 27 28 24 22 21 16 13 17 16 16 13 11 9 4 11 16
29 30 31 31 28 29 24 23 22 23 26 25 26 25 24 19 20 23 27 30 30 29 29 26 26 28 29 29 27 24 21 20 18 9 12 10 11 13 12 8 22 29 32
32 31 30 30 28 28 25 23 22 24 25 25 27 24 27 27 27 28 30 29 30 30 28 31 28 29 30 28 27 25 23 18 18 13 12 14 16 15 12 21 23 35 18
32 28 28 32 28 27 24 24 24 24 25 24 27 27 32 32 30 29 29 29 29 29 28 30 30 29 29 29 25 25 22 18 15 14 12 15 15 16 16 19 24 29 25
28 26 27 34 29 28 25 27 26 25 24 25 27 28 33 33 31 30 28 27 27 27 27 26 27 26 27 25 21 20 23 19 17 13 14 16 16 17 17 22 29 32 27
28 27 25 34 31 30 28 28 27 26 25 24 25 28 29 31 32 30 30 28 26 25 25 25 28 26 23 23 18 20 24 18 16 18 22 21 22 21 23 28 22 29 34
32 29 26 27 32 32 29 29 27 26 23 23 23 27 27 27 28 26 27 29 27 26 25 26 26 20 20 19 19 20 19 17 19 26 24 25 26 27 31 30 32 36 44
31 29 26 25 28 27 30 29 31 28 23 23 22 24 23 24 23 24 26 28 29 30 28 25 23 20 18 20 19 18 15 19 28 28 25 30 32 31 32 35 40 41 39
30 32 28 24 25 26 26 31 28 34 31 22 23 22 22 22 22 21 23 22 22 23 25 22 22 20 19 19 19 13 17 24 26 26 31 30 32 34 33 35 40 38 40
29 30 31 25 24 26 23 20 35 36 31 31 30 30 31 30 31 32 31 28 27 23 24 24 22 20 20 20 19 22 26 28 28 30 32 34 34 35 35 36 40 43 44
28 31 28 28 26 24 24 21 16 27 31 32 32 31 33 32 30 32 32 31 28 26 23 22 23 23 24 23 21 24 27 26 27 28 30 32 33 34 37 38 40 41 37
29 31 32 30 26 26 24 23 23 18 18 25 34 27 26 28 28 26 26 27 29 26 24 24 23 22 22 22 24 26 25 25 25 25 28 31 33 36 36 36 36 39 36
27 29 32 35 36 29 24 25 24 25 24 24 25 26 26 24 23 24 26 29 27 25 23 24 23 21 20 21 23 23 24 24 25 27 28 29 30 35 35 35 35 35 35
22 25 29 32 35 34 30 27 26 25 25 26 27 23 20 26 30 26 27 27 27 24 23 22 21 22 22 23 24 24 24 23 25 28 30 31 32 34 35 34 34 33 29
18 21 24 28 31 33 34 32 28 26 25 27 29 28 28 30 29 28 24 25 25 24 25 26 24 23 23 23 24 26 25 26 27 28 28 29 31 33 33 33 30 29 28
15 17 20 22 24 27 29 32 34 32 27 28 28 30 29 31 30 28 26 24 22 23 23 23 23 23 23 23 25 26 29 30 30 30 31 31 31 31 29 28 28 29 28
11 13 15 17 18 20 23 25 28 31 33 34 34 36 37 33 30 28 26 25 24 24 24 23 24 24 24 26 29 30 30 29 29 29 30 31 30 30 29 28 27 26 25
7 9 10 12 13 15 17 19 20 23 25 27 30 33 34 35 34 32 32 30 29 28 27 26 25 24 23 22 22 23 24 25 27 28 28 28 28 26 26 25 25 26 27
4 5 6 8 9 10 11 13 14 15 17 19 21 24 26 28 30 31 32 34 34 34 33 32 31 30 29 28 27 27 25 23 23 24 25 27 29 29 29 29 28 27 26
1 2 3 4 5 6 7 7 9 10 11 12 14 15 17 20 22 24 25 27 29 31 32 32 32 32 32 31 30 30 28 27 27 28 28 29 30 29 28 27 25 24 23
Wind_Direction
330 328 325 325 325 325 324 321 315 308 298 305 301 292 272 274 262 260 230 239 230 229 225 214 203 191 188 189 192 198 195 193 206 148 146 142 140 155 172 186 202 194 181
333 329 331 332 333 333 334 330 319 305 318 306 310 300 286 281 265 251 236 227 219 208 204 188 181 181 185 185 179 187 197 190 185 162 150 142 140 159 173 175 202 192 178
335 336 337 340 342 340 333 330 328 327 325 322 313 308 299 282 266 245 227 213 210 203 196 188 179 187 187 182 179 183 186 177 179 175 146 141 133 148 150 168 181 175 171
338 340 341 347 346 342 339 335 334 338 328 325 320 319 309 295 264 230 207 197 188 184 180 170 172 166 158 159 161 166 170 170 159 167 149 145 152 156 166 169 162 156 158
341 342 345 349 347 344 342 344 343 342 340 336 332 338 331 310 253 200 180 176 171 167 169 169 162 166 157 162 162 163 165 165 152 158 152 152 159 160 174 172 156 134 147
342 341 349 356 351 350 354 354 351 354 352 348 352 356 355 333 205 174 167 161 161 159 155 155 156 159 164 165 166 165 165 163 151 152 156 161 167 166 175 166 160 141 114
341 348 357 1 354 356 360 359 4 0 360 2 8 25 34 54 114 142 150 149 148 146 147 152 153 152 150 152 160 163 163 163 155 144 153 160 167 170 167 162 130 130 109
347 359 4 1 359 359 5 9 10 7 7 11 32 58 61 73 102 120 131 132 130 135 143 147 149 147 150 150 153 152 156 169 167 149 153 157 166 165 153 149 122 115 114
357 1 7 2 2 7 13 13 11 13 17 30 49 60 62 87 106 112 117 118 121 125 133 125 136 137 144 146 145 145 152 162 171 158 157 166 154 157 155 142 136 119 106
355 4 11 7 10 13 15 15 19 20 25 39 53 65 69 86 98 104 109 113 118 117 126 126 137 139 148 149 146 148 147 158 165 160 152 155 151 150 150 149 137 120 122
359 7 19 17 17 20 22 27 29 25 32 45 57 75 74 81 92 100 106 108 114 116 121 125 135 142 145 149 146 147 156 154 154 155 141 139 147 151 149 144 142 137 138
6 14 29 22 22 24 27 31 33 31 33 40 59 72 76 81 85 89 101 106 114 116 120 128 139 145 153 154 141 156 152 146 145 139 142 143 144 143 139 143 137 141 139
11 17 30 26 29 28 31 30 32 32 34 38 56 72 80 83 91 100 106 110 111 110 115 123 131 133 142 144 141 142 146 144 142 145 147 138 140 140 140 138 131 139 136
15 17 27 38 30 34 36 38 38 30 34 39 48 68 85 90 92 97 103 105 108 112 116 117 121 123 126 130 135 139 140 144 147 147 139 134 133 133 132 138 135 130 127
22 20 23 39 37 35 43 43 46 50 53 51 53 67 85 90 97 102 105 107 109 113 112 109 111 114 118 126 130 129 127 142 145 140 132 132 130 135 132 138 137 136 125
28 24 20 32 44 41 39 48 63 67 75 79 83 83 92 106 109 108 105 105 108 111 106 108 108 110 111 121 118 121 127 135 139 141 135 138 134 131 134 134 138 133 129
36 37 30 31 40 47 41 39 46 62 77 80 83 96 101 105 107 114 114 116 115 105 99 105 108 106 111 116 123 123 118 134 140 138 139 140 139 135 135 132 135 136 130
44 48 48 42 39 47 50 47 50 45 49 56 71 87 98 109 109 114 116 115 105 107 103 105 103 111 112 116 122 127 127 135 138 139 140 142 141 137 135 133 137 139 138
42 47 54 56 54 49 51 56 54 52 54 61 75 78 95 106 118 123 120 109 101 105 113 114 121 124 125 127 131 134 137 138 138 140 141 143 141 142 134 139 139 139 141
46 49 53 56 57 54 51 52 56 55 51 57 61 66 83 99 92 97 103 108 112 116 119 120 124 127 131 133 136 137 134 136 137 140 140 141 142 142 139 139 139 137 134
47 50 55 58 58 60 61 58 56 58 60 56 64 77 91 93 94 96 98 103 111 114 121 125 129 131 134 140 139 141 140 136 136 135 134 134 138 137 138 137 135 135 138
53 54 55 57 60 63 65 67 68 67 66 68 69 81 87 89 91 93 97 100 105 112 120 125 128 130 135 138 140 143 138 136 136 136 135 135 134 134 137 139 140 138 140
58 61 63 63 63 66 67 68 70 71 72 75 77 80 83 85 89 91 94 99 104 106 110 114 118 124 127 131 133 135 135 135 134 134 135 136 135 135 139 141 143 140 140
70 70 69 69 69 68 69 69 71 74 76 77 78 81 84 86 87 89 93 96 100 104 108 110 114 119 124 128 131 131 131 133 136 139 138 137 137 139 139 137 137 137 134
84 86 84 83 77 73 75 79 80 80 81 82 83 85 87 89 90 92 94 96 98 99 99 101 104 108 110 113 116 117 118 122 125 126 130 130 131 133 133 133 133 132 132
128 115 114 106 103 100 93 89 90 94 97 96 95 95 96 98 99 100 101 103 103 104 106 106 106 107 108 108 108 109 113 116 120 124 125 126 128 130 132 132 133 133 136